Location: Pace/Milton
(30.6162°N, 87.1503°W)
Time: 11:21:13
(UTC-06:00)

N. Korean satellite - Pass Details

Date: 28 November 2021
Orbit: 447 x 491 km, 97.3° (Epoch: 21 January)

Event Time Altitude Azimuth Distance (km) Brightness Sun altitude
Rises 04:53:50 0° 12° (NNE) 2,460 10.1 -19.5°
Reaches altitude 10° 04:55:53 10° 13° (NNE) 1,580 9.1 -19.1°
Maximum altitude 04:59:16 82° 101° (E) 455 6.4 -18.4°
Drops below altitude 10° 05:02:37 10° 189° (S) 1,563 9.2 -17.7°
Sets 05:04:37 0° 190° (S) 2,430 10.2 -17.3°
